This is the latest recevied weather packets stored in our database for station/object KORK. If no packets are shown the sender has not sent any weather packets the latest 10 day(s).
| Time | Temp. | Humidity | Pressure | Rain* | Wind** | Luminosity | Snow |
|---|---|---|---|---|---|---|---|
| 1777908821 | 21.67° C | 49% | 1013.2 hPa | - | - | - | - |
| 1777908215 | 21.67° C | 49% | 1013.2 hPa | - | - | - | - |
| 1777907615 | 20.56° C | 52% | 1013.5 hPa | - | - | - | - |
| 1777907019 | 20.56° C | 52% | 1013.5 hPa | - | - | - | - |
| 1777906416 | 20.56° C | 52% | 1013.5 hPa | - | - | - | - |
| 1777905817 | 20.56° C | 52% | 1013.5 hPa | - | - | - | - |
| 1777905216 | 20° C | 56% | 1013.5 hPa | - | - | - | - |
| 1777904614 | 20° C | 56% | 1013.5 hPa | - | - | - | - |
| 1777904019 | 18.89° C | 63% | 1013.9 hPa | - | - | - | - |
| 1777903414 | 18.89° C | 63% | 1013.9 hPa | - | - | - | - |
| 1777902815 | 17.78° C | 67% | 1013.9 hPa | - | - | - | - |
| 1777902216 | 17.78° C | 67% | 1013.9 hPa | - | - | - | - |
| 1777901620 | 16.67° C | 67% | 1013.9 hPa | - | - | - | - |
| 1777901017 | 16.67° C | 67% | 1013.9 hPa | - | - | - | - |
| 1777900416 | - | - | 1014.6 hPa | - | - | - | - |
| 1777899816 | - | - | 1014.6 hPa | - | - | - | - |
| 1777899219 | 15.56° C | 72% | 1013.5 hPa | - | - | - | - |
| 1777898619 | 15.56° C | 72% | 1013.5 hPa | - | - | - | - |
| 1777898020 | 15° C | 77% | 1013.2 hPa | - | - | - | - |
| 1777897418 | 15° C | 77% | 1013.2 hPa | - | - | - | - |
| 1777896815 | 15° C | 77% | 1013.2 hPa | - | - | - | - |
| 1777896216 | 15° C | 77% | 1013.2 hPa | - | - | - | - |
| 1777895615 | 15° C | 77% | 1012.9 hPa | - | - | - | - |
| 1777895018 | 15° C | 77% | 1012.9 hPa | - | - | - | - |
| 1777894418 | 15° C | 77% | 1012.9 hPa | - | - | - | - |
* Rain since midnight (hover to see other rain measurements)
** Current wind speed in m/s (hover to see current wind gust speed)